TIANHUI 5C

Satellite information

Favourite Embed

Satellite Type and Status

PAYLOADIN ORBIT

Key statistics

Satellite TIANHUI 5C at a glance.

Uptime

488

Days in orbit

Revolutions

≈ 14.9

Per day

Orbit

SSO

Sun Synchronous Orbit

Inclination

97.8

Latest

Satellite identification and parameters

Extended collection of information and parameters for TIANHUI 5C.

Object identification

Identified? True

Debris? False

Object name: TIANHUI 5C

International designator: 2024-126A

Object number (NORAD): 60211

Object ID (CCSDS): 60211

Country: PEOPLES REPUBLIC OF CHINA (PRC)

Current information (Y/N): Y

RCS size: LARGE

Orbital parameters

Period: 96.801 minutes

Inclination: 97.8195 deg

SMA: 6983.603 km

Apoapsis: 606.529 km

Periapsis: 604.408 km

RAAN: 313.3628 deg

Eccentricy: 0.0001519

Argument of periapsis: 88.4434 deg

Mean anomaly: 271.6956 deg

Mean motion: 14.87590556 rev/day

Mean motion (dot): 0.00000616 rev/day2

B* drag term: 0.000073796 1/REarth

Two-line elements (TLE)

Creation date: Nov. 3, 2025, 11:26 p.m.

Reference frame: TEME

Reference center: EARTH

Epoch: Nov. 3, 2025, 1:28 p.m. UTC

TLE line 0: 0 TIANHUI 5C

TLE line 1: 1 60211U 24126A 25307.56138708 .00000616 00000-0 73796-4 0 9999

TLE line 2: 2 60211 97.8195 313.3628 0001519 88.4434 271.6956 14.87590556 72346

Live tracking on map

Real-time ground track for satellite TIANHUI 5C.

In-orbit conjunctions

There are no conjunctions computed for TIANHUI 5C, at the moment. Check back to stay up to date, as we update our databases every day.

Go to all conjunctions

Associated space launch

A pair of satellites officially described as for cartographic surveying purposes, details TBD.

TIANHUI 5C was lifted into orbit during the mission ‘Long March 6A | Tianhui 5 Group 02’, on board a Long March 6A space rocket.

The launch took place on July 4, 2024, 10:49 p.m. from Launch Complex 9A.

For more information about the launch, click the button.

Launch to space Long March 6A | Tianhui 5 Group 02
Long March 6A | Tianhui 5 Group 02

Agency: N/A

Status: Launch Successful

Launch date: July 4, 2024, 10:49 p.m. UTC

Rocket: Long March 6A

Launch pad: Launch Complex 9A

Location: Taiyuan Satellite Launch Center, People's Republic of China

...

Latest news about this satellite

News about space launch
China’s Long March 6A rocket appears to have an orbital debris problem

The upper stage of China’s Long March 6A rocket appears to be creating numerous pieces of space debris, adding to the growing issue of orbital debris.


Newsletter sign-up

Weekly statistics, charts and insights to help you stay on top of the space industry.